Location: *
(58.7167°N, 26.1833°E)
Time: 20:07:45
(UTC+00:00)

Landsat 4 - Pass Details

Date: 25 August 2019
Orbit: 506 x 524 km, 98.2° (Epoch: 13 October)

Event Time Altitude Azimuth Distance (km) Brightness Sun altitude
Rises 20:29:00 0° 18° (NNE) 2,658 8.0 -17.3°
Reaches altitude 10° 20:31:08 10° 22° (NNE) 1,768 6.9 -17.4°
Maximum altitude 20:34:54 61° 103° (ESE) 599 3.7 -17.6°
Enters shadow 20:35:55 43° 162° (SSE) 747 4.0 -17.7°
